Weather in Panino

Russia / Lipetsk Oblast     52˚48′19″N   39˚45′57″E
temp.,
°C
wind,
m/s
gust,
m/s
humid.,
%
clouds,
%
prec.,
mm/h
press.,
hPa
HPBL,
m
17 january, sun
sun1700:00−14˚w499499 0.1 1009477
03:00−15˚w379599 0.2 1011331
06:00−17˚w349693 0.1 101181
09:00−19˚wnw229790 0.1 101225
12:00−16˚w229228 0.0 1014208
15:00−16˚nw119344 0.0 101563
18:00−20˚nnw129848 0.0 101620
21:00−21˚ne129974 0.0 101820
18 january, mon
mon1800:00−21˚ne1299100 0.0 101820
03:00−20˚nne1197100 0.0 101924
06:00−21˚nne1297100 0.0 101924
09:00−21˚nne1296100 0.0 101931
12:00−18˚nne2290100 0.0 1020235
15:00−17˚n2293100 0.1 1018262
18:00−18˚n2398100 0.5 1018157
21:00−18˚nw2298100 0.9 1019123
19 january, tue
tue1900:00−19˚nnw1297100 0.1 101936
03:00−22˚nw129887 0.2 101820
06:00−23˚wnw229737 0.0 101820
09:00−22˚wnw229760 0.0 101831
12:00−19˚wnw239494 0.0 1018209
15:00−18˚w249597 0.1 1016242
18:00−19˚w2398100 0.1 101790
21:00−17˚w3597100 0.4 1017180
20 january, wed
wed2000:00−18˚wnw349799 0.2 1017127
03:00−17˚wnw359599 0.3 1018184
06:00−18˚wnw3595100 0.0 1019109
09:00−18˚wnw359598 0.0 1020137
12:00−16˚wnw349345 0.0 1021234
15:00−15˚wnw359333 0.0 1022220
18:00−19˚w33967 0.0 102432
21:00−20˚w33964 0.0 102533
21 january, thu
thu2100:00−20˚wsw33970 0.0 102531
03:00−20˚wsw33970 0.0 102639
06:00−20˚sw34970 0.0 102647
09:00−20˚ssw349233 0.0 102672
12:00−14˚ssw498889 0.0 1024275
15:00−11˚ssw5118994 0.0 1022386
18:00−10˚ssw61393100 0.3 1020474
21:00−7˚sw61494100 0.8 1018567